Wind_Speed
31 34 36 36 36 35 35 34 33 34 36 36 36 35 33 32 32 31 30 30 27 26 26 26 24 23 22 22 22 20 18 17 16 16 16 17 17 18 18 20 20 20 19 19 18 18 20 20 20 20 20 20 21 23 23 21 20 21 23 25 23 20 19 21 21 20 21 21 21 22 26 28 28 26 25 25 25 25 23 23 24 24 24 24 23 22 21
29 32 34 36 36 37 36 35 34 34 36 37 37 36 35 34 34 33 32 31 29 28 27 25 22 21 21 21 21 21 21 21 19 18 17 16 14 14 15 17 18 19 20 20 19 19 20 21 22 22 21 20 21 22 21 16 13 17 21 22 21 21 22 24 24 24 23 22 21 22 24 27 28 27 27 28 27 26 25 24 25 26 26 25 24 24 23
29 31 32 34 36 37 38 38 36 35 36 39 40 39 37 37 36 36 35 33 32 31 30 26 23 22 21 21 22 23 25 25 24 23 23 21 19 18 18 19 20 20 20 20 20 20 20 21 22 21 21 20 20 21 22 17 14 18 22 21 21 22 22 23 25 25 23 21 20 21 21 22 24 26 27 26 24 25 26 26 27 27 27 26 25 25 24
30 30 32 35 36 37 37 39 39 37 36 38 41 42 40 38 38 38 38 36 34 33 32 29 26 25 24 24 23 25 28 27 25 25 24 22 21 21 22 23 23 22 22 22 22 21 21 22 22 22 22 21 21 22 25 23 23 26 26 24 24 23 22 23 24 24 22 21 21 20 17 16 19 22 24 22 21 23 26 27 28 28 27 26 25 25 25
28 29 32 36 38 39 39 38 39 39 36 36 39 42 42 40 40 40 39 38 36 34 31 29 27 26 25 24 23 24 27 27 25 24 23 22 22 22 23 23 23 23 23 23 23 23 24 24 24 24 24 24 23 24 26 27 28 28 28 27 28 28 27 27 27 25 24 22 22 21 18 16 17 19 22 22 21 22 23 23 24 26 26 26 26 26 26
21 25 30 34 37 41 42 39 37 37 36 36 37 40 40 40 41 41 41 40 38 35 31 29 28 26 26 26 25 24 27 26 25 25 25 25 24 23 23 22 22 22 22 23 24 25 25 25 24 23 24 24 25 26 27 28 28 27 27 29 30 30 29 29 29 28 25 24 24 24 23 21 20 21 23 24 23 22 22 23 24 26 26 26 26 26 26
11 16 24 29 34 40 43 41 39 37 37 37 38 39 39 38 39 41 42 42 40 36 33 30 29 29 28 27 25 25 28 28 25 25 25 25 24 23 22 22 22 22 22 22 24 25 25 24 23 23 24 25 25 26 26 27 26 26 26 27 28 28 27 27 28 28 27 26 26 27 26 25 25 26 27 26 26 25 26 27 29 29 28 27 26 26 26
11 9 12 17 24 34 39 39 37 36 35 34 36 38 39 38 37 38 41 43 41 38 35 32 31 32 31 30 29 30 33 31 26 24 25 24 22 21 21 22 22 22 22 22 23 24 23 22 22 23 24 26 26 25 25 25 26 26 24 24 25 27 27 28 28 27 27 27 28 29 29 28 29 30 30 29 29 30 31 31 30 29 28 26 25 25 26
18 13 8 7 11 19 25 27 27 26 24 24 26 30 35 37 37 36 39 40 39 38 37 36 36 35 34 33 31 30 33 34 32 29 28 26 24 23 23 24 24 24 23 23 23 23 22 22 24 25 26 27 27 26 25 25 25 24 22 22 24 26 27 28 28 28 27 27 28 30 30 30 30 30 29 30 31 32 33 32 31 30 30 30 30 30 30
22 18 13 9 9 11 14 17 18 18 17 16 16 20 26 33 36 38 39 38 38 38 36 35 35 33 31 31 30 26 28 33 35 33 30 28 25 23 22 24 25 25 25 25 26 26 25 26 28 29 30 31 32 31 29 26 26 26 25 24 24 25 26 27 28 28 28 29 31 32 32 31 31 30 30 30 32 33 34 34 33 33 34 35 37 38 37
23 20 17 14 12 11 11 12 13 14 14 15 17 18 20 25 29 33 35 35 34 31 29 29 30 32 34 35 31 26 24 26 27 27 26 25 24 23 24 25 25 26 27 28 29 31 31 31 32 32 31 33 34 33 30 27 28 30 29 26 25 26 27 27 27 28 29 30 31 32 32 32 32 32 33 33 34 35 36 37 37 38 38 39 41 42 42
20 20 19 18 16 14 13 13 14 15 16 17 18 19 20 20 22 25 28 30 30 29 28 29 28 28 30 28 25 25 25 24 24 25 26 26 27 28 28 29 29 29 29 30 31 33 34 34 34 34 35 35 35 33 30 29 30 32 31 29 28 29 29 29 29 29 30 30 31 32 33 33 33 34 36 36 37 37 38 39 40 41 42 43 43 44 45
16 17 18 19 19 18 17 16 17 19 20 19 18 18 19 20 21 22 24 25 27 30 32 30 26 24 25 26 26 28 29 28 28 29 30 32 33 33 33 34 34 34 33 33 33 34 34 34 34 35 38 40 40 38 37 36 35 36 37 37 37 37 37 37 37 35 34 34 34 34 35 35 35 36 38 39 39 40 40 40 40 41 43 45 45 46 46
15 14 15 17 18 19 20 19 20 21 23 23 21 18 18 20 22 23 23 23 24 27 30 30 28 28 29 30 30 30 29 29 29 30 30 31 31 32 33 34 35 36 36 36 36 36 36 36 36 35 37 39 42 43 43 42 42 42 42 42 42 42 43 43 43 42 42 41 41 39 38 39 39 40 40 41 42 43 43 44 44 45 45 47 48 48 49
14 13 14 15 15 16 18 20 21 23 24 25 24 21 20 20 21 22 22 22 23 24 25 27 28 29 31 32 31 30 29 28 28 28 28 27 27 28 29 29 31 32 33 34 36 37 38 39 39 39 39 39 40 41 42 43 44 44 45 45 45 45 45 45 45 46 46 46 46 46 46 46 46 46 45 43 43 44 45 46 47 48 48 47 48 48 49
14 15 15 15 15 16 17 19 21 22 23 25 25 24 23 21 20 20 21 21 21 21 22 24 25 27 29 31 31 31 30 29 28 27 26 26 26 26 26 26 26 27 28 29 30 32 34 37 38 40 41 41 42 42 42 43 43 44 45 46 47 47 47 47 47 47 47 48 49 49 49 49 49 48 48 47 45 46 47 48 49 50 50 50 51 51 52
14 16 15 15 15 16 16 17 18 19 21 22 23 24 23 21 20 20 21 22 22 20 20 21 23 26 29 31 31 31 30 30 30 29 28 28 28 28 28 28 27 27 27 27 28 29 30 31 33 35 37 38 40 41 42 43 44 45 45 46 47 47 47 47 47 47 48 49 49 50 50 50 49 49 50 50 50 51 51 52 52 53 54 55 55 55 55
14 16 17 17 17 17 17 17 17 18 19 19 20 22 22 21 20 20 20 21 21 22 23 23 24 27 30 31 31 31 31 31 31 30 30 30 29 29 29 29 29 29 29 29 29 30 30 31 32 33 34 36 37 37 39 40 41 42 44 45 45 46 46 46 46 47 48 48 49 49 49 49 49 49 49 50 50 51 51 51 52 52 53 53 53 53 53
15 16 16 17 18 18 19 19 19 19 20 20 20 21 22 22 22 23 23 23 23 24 27 29 30 32 33 32 32 32 32 32 32 32 32 32 32 31 31 31 31 31 31 32 32 32 33 34 35 35 36 37 38 38 39 40 40 41 42 43 44 44 45 46 47 48 48 49 49 49 49 49 49 49 49 50 50 50 50 51 51 51 51 52 51 51 51
16 16 16 17 18 18 18 19 20 21 22 22 23 23 24 24 25 26 27 27 28 28 30 31 33 36 37 36 35 34 34 35 35 35 36 36 35 35 35 35 35 35 35 36 36 37 37 38 38 38 39 40 40 41 42 42 43 43 44 44 45 46 47 48 48 49 49 50 50 50 51 51 51 51 51 51 51 51 51 52 52 52 52 53 53 53 53
15 16 16 17 17 18 18 19 19 20 22 23 25 26 27 28 29 29 30 31 31 32 32 34 36 38 39 38 37 37 38 38 38 39 40 40 40 40 39 39 39 40 40 41 41 41 42 42 42 42 42 43 43 44 44 45 45 46 46 47 48 49 50 50 51 51 52 52 52 52 52 52 52 53 53 53 53 53 53 54 54 55 55 56 56 57 57
13 13 14 16 17 18 19 19 20 20 21 22 24 26 27 29 30 31 32 34 35 36 36 37 38 40 40 40 40 40 40 40 40 41 41 42 42 42 42 42 42 42 43 44 44 45 45 46 46 46 45 45 46 46 46 47 47 47 48 49 50 50 51 52 52 53 53 53 54 54 54 54 54 55 55 56 56 56 56 57 58 58 59 59 59 60 61
10 11 12 13 15 17 18 19 20 21 22 23 24 24 26 27 29 30 32 34 35 37 38 39 40 41 42 42 43 43 43 43 43 43 44 44 45 45 44 44 44 45 45 46 46 46 47 47 47 47 48 48 49 49 49 49 50 50 51 51 52 53 53 53 54 54 54 55 55 55 55 55 55 56 56 57 58 58 58 59 60 61 61 62 63 64 65
8 9 10 11 13 14 16 17 18 20 21 23 24 25 26 27 29 30 31 33 34 35 36 37 38 40 41 41 42 43 44 44 45 46 46 47 48 48 48 48 48 48 48 48 48 49 49 49 49 49 50 51 52 52 52 52 53 53 54 54 55 55 55 55 56 56 56 56 56 55 55 56 56 56 56 57 58 59 60 60 60 61 62 63 64 65 65
8 9 9 10 11 12 13 15 17 18 20 21 23 24 26 27 28 30 31 31 32 33 33 34 34 36 37 38 38 39 40 41 42 43 44 45 47 48 48 49 49 50 50 50 50 51 51 51 52 52 53 54 55 55 55 55 55 55 55 56 56 56 56 56 56 57 57 57 57 57 57 57 57 57 57 57 58 59 60 60 61 62 62 61 60 60 59
10 10 10 11 11 12 12 13 15 17 18 20 22 23 25 26 28 29 30 31 32 32 33 33 33 34 35 35 36 37 37 38 38 38 39 39 40 42 43 44 45 46 47 47 48 48 48 49 49 50 50 51 51 52 52 53 53 54 54 55 55 56 56 56 57 57 57 57 57 57 57 57 57 57 57 57 56 56 56 57 57 58 57 56 55 53 53
12 12 12 13 13 14 14 14 15 16 17 19 20 22 23 25 27 29 30 31 32 33 33 34 34 35 35 35 36 36 36 35 35 35 35 35 36 36 37 38 39 40 40 40 41 41 42 43 43 42 43 43 43 44 44 45 46 47 47 48 49 49 50 50 51 51 51 51 51 52 52 51 51 51 50 50 50 49 49 49 49 50 50 50 49 48 46
12 13 14 15 16 16 17 18 19 19 20 20 21 22 23 25 26 28 29 30 31 32 32 33 34 35 36 36 36 36 36 35 35 35 35 35 34 34 34 34 34 35 35 35 35 36 36 36 35 35 36 36 36 36 37 38 38 39 40 41 41 41 42 42 43 43 43 43 43 43 43 43 43 43 43 43 44 44 44 44 43 42 40 39 39 38 37
15 16 17 19 20 21 21 22 23 24 25 25 25 26 26 26 27 27 28 29 30 31 32 32 33 33 34 34 35 35 35 35 35 35 35 34 34 33 33 32 32 32 32 32 32 32 32 32 32 33 33 33 33 33 34 35 35 35 36 36 36 36 37 37 36 37 37 37 37 37 37 38 38 38 38 38 38 38 37 36 35 33 32 30 30 30 30
18 20 22 24 25 26 27 28 29 29 30 30 31 31 31 30 29 29 29 29 30 31 32 32 32 32 32 32 32 33 33 34 34 34 34 34 33 33 32 31 31 31 30 30 30 30 30 30 31 31 32 32 32 32 32 32 32 33 33 33 33 33 33 33 33 33 33 33 33 33 33 33 32 32 32 31 31 30 30 29 28 28 28 28 29 29 30
23 24 26 27 29 30 31 32 33 34 34 34 34 34 34 34 33 31 30 30 31 31 32 31 31 31 31 30 31 31 32 32 32 33 33 33 33 32 32 31 30 30 29 29 29 29 29 29 29 30 30 30 30 30 31 30 30 30 31 31 30 30 30 30 29 29 29 28 28 28 27 26 26 26 26 25 25 25 25 26 26 27 27 28 29 30 31
29 31 32 34 35 35 35 35 35 35 35 36 36 36 36 36 35 33 32 31 31 31 31 31 30 30 30 29 29 29 30 30 30 31 31 31 31 31 31 30 29 29 28 28 28 28 28 28 28 29 29 29 29 29 30 30 29 29 29 28 27 26 26 25 24 23 23 23 23 22 22 22 22 22 22 23 23 24 24 25 26 26 27 28 29 30 31
33 35 37 39 40 40 39 37 35 34 33 33 34 34 35 34 33 32 32 31 30 30 30 30 30 29 29 28 28 28 28 28 28 28 29 29 29 29 29 29 28 28 27 27 27 27 27 27 28 28 28 28 28 28 28 28 27 25 24 24 23 22 20 20 19 18 19 19 19 19 19 19 20 20 21 21 22 22 23 24 25 26 27 27 28 29 30
37 39 40 40 39 37 34 31 30 29 28 27 28 28 29 29 29 29 29 30 29 29 29 28 28 27 27 27 27 26 26 26 26 26 26 27 27 27 27 27 27 27 27 26 26 27 27 26 26 26 27 27 26 26 25 25 24 21 19 19 19 17 16 16 15 15 16 17 17 17 17 17 18 18 18 19 20 20 21 22 23 24 24 25 25 26 27
39 40 38 35 31 27 24 23 23 23 23 23 23 22 23 24 25 25 26 26 27 27 27 27 26 25 25 24 25 25 25 25 24 24 25 25 25 25 25 25 26 26 26 26 26 26 26 25 25 25 25 25 24 22 22 22 20 17 16 16 16 15 14 14 14 14 15 16 15 15 15 16 16 15 15 16 17 17 18 18 19 20 20 21 22 23 24
39 36 32 27 22 19 19 19 19 19 19 18 18 17 18 19 19 20 21 22 23 23 24 24 24 24 23 23 23 23 23 23 23 23 23 23 23 24 24 24 24 24 24 25 25 24 24 23 23 23 23 22 20 19 19 19 18 15 14 14 14 14 14 14 14 14 15 15 15 15 16 16 16 15 15 15 15 15 16 16 17 17 18 19 21 22 24
33 29 25 21 19 18 18 18 16 15 15 15 15 16 16 16 16 17 18 18 19 20 22 22 23 22 22 21 21 21 21 21 21 22 22 22 22 22 22 22 23 23 23 23 23 23 22 22 22 22 21 19 18 17 17 17 16 14 13 14 14 15 15 15 15 15 16 16 16 16 16 16 16 16 16 16 16 16 17 17 17 18 19 20 22 23 25
27 23 21 19 18 17 17 15 13 12 12 13 14 15 16 16 15 15 15 15 16 17 19 20 20 20 20 20 20 20 20 20 20 21 21 21 21 21 21 21 21 22 22 22 21 21 21 21 21 20 19 18 17 17 17 17 15 14 14 14 15 16 16 16 16 16 16 17 17 17 17 17 17 17 17 17 17 17 17 18 19 19 20 21 22 24 25
22 20 18 18 17 16 15 14 12 12 12 13 14 15 16 15 13 12 11 12 13 15 16 17 18 18 18 18 18 19 19 19 20 20 20 20 21 21 21 21 21 21 21 21 20 20 21 21 20 19 18 18 17 16 16 16 14 13 13 14 15 16 16 16 17 17 17 17 17 17 16 16 16 17 17 17 18 18 18 18 19 20 21 22 23 23 25
20 19 18 17 15 15 15 15 14 14 15 15 16 16 14 13 11 10 9 8 9 11 13 15 16 17 17 17 17 17 18 18 19 19 19 19 20 20 20 20 20 20 20 20 20 20 20 20 19 18 19 19 18 17 17 16 14 13 12 13 13 13 14 14 15 15 15 16 16 15 15 15 15 16 17 17 18 18 18 19 19 20 21 22 22 23 24
19 18 18 17 15 15 15 16 15 15 15 16 16 15 13 12 12 12 10 9 9 10 11 12 13 14 15 16 16 16 16 17 17 18 19 19 19 20 20 20 20 19 19 19 19 19 20 19 18 18 19 20 19 18 18 17 15 13 13 12 12 12 12 13 13 14 14 14 14 14 14 15 16 17 18 18 19 19 19 19 20 20 20 21 22 22 23
18 17 16 17 17 16 16 16 16 16 16 16 16 15 14 14 15 15 13 12 10 10 11 11 11 12 13 14 14 15 15 15 16 17 18 18 19 19 19 19 19 18 18 18 18 19 19 19 19 19 20 20 20 20 19 18 15 14 13 13 12 13 13 13 13 14 14 14 14 14 15 16 17 18 19 20 20 20 20 20 20 20 20 20 20 21 21
18 17 15 15 16 17 16 16 16 17 17 17 17 17 17 17 17 16 15 13 11 11 11 12 11 11 12 12 13 14 14 14 14 15 16 17 17 18 18 18 17 17 17 17 18 18 19 18 19 20 21 20 21 21 20 18 15 14 14 14 14 14 14 14 14 15 15 15 16 16 17 18 19 20 20 21 21 21 21 20 20 20 20 20 20 19 19
17 16 15 14 14 15 16 15 15 16 16 17 18 18 18 18 17 16 15 13 11 11 11 12 12 12 12 12 12 13 14 14 14 14 14 15 16 17 17 17 17 17 17 17 17 18 18 18 19 21 21 21 21 22 21 19 17 15 15 16 16 16 16 16 16 16 17 17 17 18 19 19 20 21 21 22 22 21 21 21 20 20 20 19 19 18 17
17 16 14 13 13 14 15 16 17 17 16 16 17 17 17 17 17 15 13 12 11 11 11 11 11 12 12 12 12 12 13 14 14 14 14 14 15 16 16 16 16 16 16 16 16 17 18 19 20 21 21 21 22 23 22 20 18 18 18 18 18 18 18 18 17 17 17 17 18 18 19 20 20 21 21 22 22 22 22 21 21 20 20 19 18 17 16
17 16 15 14 14 14 15 16 18 18 17 16 16 16 16 15 15 14 12 12 12 12 12 11 11 11 12 12 12 12 12 13 14 14 14 13 14 15 16 16 15 15 15 15 16 17 18 18 19 20 21 22 23 23 22 21 20 20 20 20 19 19 18 18 18 17 17 17 18 18 19 19 20 21 21 21 21 21 21 21 20 20 19 18 18 17 15
18 17 15 14 14 14 15 16 17 17 16 15 15 15 14 13 13 13 13 13 14 13 12 11 11 11 12 12 12 12 12 12 12 13 13 13 13 13 15 16 15 15 15 15 15 16 17 18 19 20 21 22 23 23 22 22 22 21 21 20 19 19 18 18 17 16 16 17 17 18 18 19 19 19 19 20 20 20 20 20 19 19 18 17 16 16 15
18 17 16 14 13 14 15 16 16 15 14 14 13 13 13 12 12 13 13 13 12 10 9 9 9 10 10 10 10 10 11 11 11 12 13 13 13 13 14 14 15 15 15 15 15 15 16 17 18 19 21 22 23 23 23 23 22 21 20 20 19 19 18 18 17 16 16 17 17 17 17 18 18 18 18 18 19 19 19 19 18 17 17 15 15 14 14
18 18 17 15 14 15 15 16 15 14 13 13 13 12 11 11 11 11 11 10 7 6 5 6 7 8 9 9 9 10 10 10 10 10 11 12 13 13 13 13 13 13 14 14 15 15 15 16 17 19 20 22 23 23 22 21 21 20 20 19 19 19 18 17 17 17 17 17 17 17 17 17 16 16 17 18 19 19 18 17 16 15 14 14 13 13 13
18 18 17 16 16 16 16 16 14 13 12 12 12 10 9 9 10 10 9 7 5 4 5 5 6 8 9 10 10 10 11 11 10 9 9 10 11 12 12 12 12 12 12 13 14 15 16 17 18 19 20 21 21 21 21 21 21 20 20 20 19 19 18 17 17 17 17 17 17 17 16 16 16 16 16 17 18 18 17 16 15 14 13 13 12 12 12
18 18 17 16 16 16 16 15 14 13 12 11 10 10 9 9 10 10 9 8 7 7 8 8 9 10 10 11 12 12 12 12 12 10 9 8 9 10 11 12 12 12 12 13 14 15 16 18 19 20 20 20 20 21 21 21 21 21 21 21 20 19 19 18 17 17 16 16 16 16 16 16 16 16 16 17 17 18 17 16 14 14 13 12 12 11 11
18 17 17 16 16 15 15 14 13 12 11 11 11 11 11 11 11 11 12 11 11 11 12 13 13 13 13 13 13 14 14 14 13 12 11 10 10 10 11 12 13 13 13 14 15 16 17 18 19 20 21 21 22 23 23 23 22 22 21 21 20 20 19 18 17 17 16 16 15 15 15 15 15 16 16 17 17 17 16 15 14 14 13 12 11 11 11
Wind_Direction
234 228 228 230 232 231 229 226 224 226 229 229 227 226 227 229 232 235 238 242 245 248 250 249 248 248 249 252 254 254 251 246 243 237 223 212 211 214 219 224 226 229 230 230 231 233 234 238 239 236 239 247 252 253 256 261 261 256 249 244 242 246 252 254 255 256 253 254 260 266 265 259 255 254 251 251 253 253 251 251 250 249 248 248 246 243 239
238 232 229 230 232 234 234 231 227 225 227 230 231 230 230 232 234 235 236 239 243 245 246 248 250 251 251 251 255 259 257 253 250 246 242 236 229 224 222 223 225 230 233 234 235 236 237 239 240 242 246 247 247 249 251 256 262 260 255 252 251 255 258 260 263 264 260 257 262 266 263 253 249 251 252 253 256 255 251 248 247 248 248 245 242 240 238
240 238 235 232 232 235 237 236 232 228 227 230 232 232 232 233 236 238 238 239 241 243 247 250 250 248 249 252 261 265 259 253 251 250 248 246 244 240 233 227 224 225 228 231 233 234 235 238 240 243 244 243 243 240 235 242 267 271 265 260 255 255 261 263 264 263 261 261 264 265 259 250 248 251 252 252 254 253 251 248 246 247 246 244 241 240 239
240 243 243 240 236 235 236 237 237 234 232 231 232 233 235 236 237 240 241 242 244 246 249 251 251 251 251 254 262 263 255 249 247 244 242 240 238 238 235 228 223 221 223 228 232 234 236 238 239 241 241 242 242 234 229 243 267 272 268 261 253 252 257 261 260 257 254 255 258 256 247 242 249 252 248 245 249 253 253 252 249 246 243 240 240 241 242
238 240 244 246 243 239 236 235 236 237 237 234 231 232 236 239 241 243 245 246 248 249 250 251 254 256 256 260 265 254 241 239 239 237 239 241 236 231 228 225 224 224 224 227 232 236 238 239 240 242 244 246 245 240 240 249 260 263 261 256 250 247 249 251 253 252 249 248 248 244 238 233 241 247 246 244 248 251 252 252 249 246 243 239 239 242 244
230 233 238 243 244 243 241 238 235 237 238 237 234 233 236 240 243 245 247 248 249 250 250 253 257 261 265 270 266 242 225 226 234 237 241 241 234 227 225 225 227 228 227 228 230 233 236 238 239 240 243 245 245 245 246 250 252 252 251 250 250 250 251 252 254 254 253 251 246 241 237 234 233 237 243 247 247 245 243 241 240 241 241 240 241 243 245
227 229 231 235 238 241 243 242 240 240 240 240 239 239 239 242 244 246 247 246 247 249 251 255 261 266 269 267 256 240 231 230 231 232 232 229 225 225 226 227 227 227 228 230 231 231 231 232 233 235 238 241 243 244 245 246 247 246 246 247 250 252 253 254 255 256 256 255 252 248 244 243 244 246 247 248 246 243 240 238 237 238 237 238 240 243 247
250 241 225 230 237 239 241 243 244 245 246 245 244 242 240 241 243 244 242 242 245 247 250 255 260 263 264 262 256 251 244 234 225 226 228 228 229 231 231 230 228 227 229 232 232 227 225 227 234 237 237 236 236 238 240 241 241 241 242 244 247 249 249 250 253 256 257 257 259 258 257 257 259 259 258 255 251 248 246 245 244 242 237 236 240 246 252
257 262 244 221 223 228 231 233 237 240 242 242 241 239 236 236 239 239 237 239 244 247 250 254 257 261 264 261 253 247 240 234 232 235 241 246 249 246 239 234 230 228 231 232 228 222 222 231 240 242 240 236 231 229 230 233 234 231 230 235 240 243 246 248 250 254 256 258 259 261 263 265 266 266 265 262 258 254 252 251 251 247 240 238 244 254 260
259 263 259 239 215 210 213 216 220 225 228 228 227 230 230 230 232 234 236 238 243 247 252 254 255 254 247 234 221 217 225 233 236 239 245 250 249 243 238 236 234 233 234 233 231 230 231 235 239 242 241 236 233 230 228 228 227 226 229 236 240 242 243 245 248 252 256 259 260 263 265 266 267 267 267 266 264 261 258 257 256 254 250 248 253 260 265
259 260 262 259 247 228 213 210 206 204 210 215 214 218 222 223 224 227 230 232 235 239 242 240 237 230 221 214 211 215 224 230 232 236 240 242 241 238 238 239 239 239 240 239 238 239 239 239 240 243 241 237 234 232 230 228 225 225 229 236 241 243 245 246 250 256 259 261 263 264 264 264 265 265 265 265 265 264 262 260 260 260 260 259 260 264 266
259 259 261 262 259 247 232 221 208 196 196 203 207 210 214 215 218 221 223 223 223 222 221 221 220 219 216 217 222 228 232 235 235 236 237 238 240 242 243 244 244 244 244 243 243 243 243 243 242 242 242 241 240 238 237 235 230 227 229 233 236 241 245 249 255 260 263 265 264 259 257 258 261 263 263 265 267 267 266 263 262 261 261 261 262 264 265
254 257 257 253 250 247 241 233 224 215 210 211 214 213 210 209 213 217 219 220 219 218 220 224 230 233 233 233 234 235 238 241 242 241 242 243 243 245 246 248 248 247 245 244 245 246 248 248 246 243 241 242 243 244 245 245 241 239 239 241 244 246 247 250 253 256 257 259 259 256 255 258 260 260 261 263 266 268 267 266 265 264 263 263 264 265 264
244 246 248 241 236 236 236 234 230 226 223 222 224 223 216 213 214 217 219 222 223 223 227 233 239 244 245 245 244 243 243 244 244 244 245 244 244 245 246 247 248 249 249 247 246 247 248 249 249 247 244 242 242 244 246 247 248 248 248 249 251 251 251 252 253 254 254 256 258 259 259 260 261 262 263 264 266 266 265 265 265 265 265 265 265 265 265
233 231 237 236 230 229 230 230 228 228 227 226 227 227 224 219 216 215 217 222 226 228 230 233 237 240 244 246 247 248 247 246 246 245 244 243 243 243 243 244 246 248 250 250 249 249 248 248 248 248 247 246 246 246 247 248 250 251 252 253 254 255 256 257 257 257 257 258 261 263 264 265 267 268 269 269 267 265 264 264 264 264 265 265 265 265 266
230 229 232 230 224 222 224 226 227 227 228 228 228 229 230 228 227 225 224 226 230 233 236 239 240 241 242 244 246 248 248 248 248 247 247 248 248 247 247 247 247 248 249 250 250 250 250 250 249 249 249 249 249 250 250 251 251 252 253 254 255 257 258 259 260 260 260 261 262 264 266 267 269 269 269 268 265 262 262 262 263 264 266 267 268 269 270
235 234 236 234 228 224 222 225 227 227 229 229 229 230 232 232 234 236 236 236 236 237 239 243 245 245 245 246 248 249 249 250 250 250 250 250 251 252 252 252 252 252 252 252 253 253 254 254 254 254 254 253 252 252 252 252 253 253 254 255 257 258 260 261 262 263 264 264 264 265 266 267 267 267 267 266 265 264 264 263 263 263 264 265 267 268 269
242 240 242 243 243 239 236 235 234 234 233 232 230 231 232 230 228 232 237 238 236 231 229 231 236 242 244 245 246 247 249 249 249 249 250 250 250 251 252 253 254 255 255 255 255 255 256 257 257 258 258 258 258 257 257 256 256 256 257 257 258 259 260 262 263 263 264 264 265 265 266 267 267 267 266 266 266 266 265 265 265 265 265 265 265 266 267
246 245 245 246 249 250 249 248 246 245 244 242 238 237 236 233 229 228 232 235 235 232 232 234 238 242 244 244 245 246 247 247 248 248 250 251 252 253 255 256 256 256 256 256 256 256 256 256 256 257 257 258 259 259 259 259 259 259 259 259 259 259 260 260 261 262 262 263 264 265 265 266 266 267 267 267 267 266 266 266 266 266 266 266 266 266 266
246 247 248 249 250 251 251 251 250 249 248 248 247 244 243 241 238 235 234 235 235 233 234 236 240 243 245 246 248 249 248 248 249 250 251 253 254 255 257 258 259 259 259 259 259 259 258 258 259 259 259 260 260 260 260 261 261 262 262 262 262 262 262 262 262 262 263 264 264 265 266 266 267 267 267 267 267 267 267 266 266 267 267 267 268 268 268
245 247 249 250 250 250 250 249 248 248 248 249 249 249 248 247 245 243 241 240 239 238 237 238 240 245 248 249 249 248 248 249 250 252 253 254 254 254 255 257 258 259 260 260 261 261 261 261 261 262 262 262 262 262 263 263 264 264 265 265 265 265 265 266 266 266 266 267 267 267 268 269 269 269 270 270 270 270 270 270 270 271 272 272 273 273 274
250 252 253 254 254 255 254 252 251 251 250 249 250 251 252 251 250 249 247 245 244 244 243 243 244 247 249 249 248 248 248 249 250 251 252 253 253 254 255 256 257 258 259 260 261 261 262 262 262 262 263 263 263 263 264 265 266 266 266 266 267 267 267 268 268 268 268 268 269 269 270 271 272 272 273 273 273 273 274 274 275 276 276 276 277 278 279
256 258 259 260 260 260 259 259 258 256 254 252 251 250 251 252 252 252 252 251 250 250 250 249 249 250 251 251 251 251 251 250 251 251 251 252 252 253 254 255 255 256 256 257 258 259 260 261 262 262 263 263 263 264 265 265 266 266 267 267 268 268 269 269 270 270 270 271 272 272 273 273 274 275 275 276 276 276 276 277 278 279 279 280 281 282 283
265 264 264 264 266 267 267 267 266 264 261 259 256 254 252 252 252 252 253 253 253 252 253 253 253 254 255 256 256 256 256 256 255 255 255 255 255 255 255 255 256 256 256 257 257 258 258 259 260 261 262 263 263 264 264 265 266 266 267 268 269 270 270 271 272 273 273 274 275 275 276 276 277 277 278 279 279 279 279 279 280 280 281 281 282 282 282
276 273 271 269 269 270 271 272 272 272 270 268 265 263 260 258 257 256 256 257 257 257 257 256 256 256 256 257 257 257 257 258 258 258 259 259 259 259 259 258 259 259 259 260 260 260 260 261 261 261 262 263 263 264 265 266 266 267 268 269 269 270 271 272 273 274 275 275 276 276 277 278 278 279 279 279 280 280 280 280 280 280 280 281 281 280 280
291 287 283 279 275 273 270 270 270 271 272 272 272 271 269 266 264 262 260 260 260 260 260 259 259 258 258 257 257 257 257 257 258 259 260 260 260 260 260 260 260 260 261 261 262 263 263 263 264 264 264 265 265 266 266 267 267 268 269 269 270 271 271 272 273 274 275 275 276 276 277 277 278 278 278 278 278 279 279 280 280 279 279 278 279 279 279
298 297 294 291 289 287 283 279 275 271 269 267 265 264 265 265 266 266 266 265 264 263 262 261 260 260 260 259 259 259 259 259 259 259 260 260 260 260 260 260 260 261 261 262 262 263 263 264 265 265 266 266 267 267 267 268 268 269 269 270 270 271 272 272 273 274 274 275 275 275 276 276 277 277 277 277 277 277 278 279 280 280 279 279 278 278 278
300 300 299 297 296 295 293 290 288 285 281 275 268 262 259 258 259 261 263 264 264 264 263 263 263 263 263 262 262 261 261 261 261 261 261 261 261 261 261 261 261 262 262 262 263 263 264 265 265 265 266 266 267 267 268 268 268 269 270 270 271 271 272 272 273 273 274 274 274 275 275 275 275 275 275 275 276 276 276 277 278 279 280 280 279 278 277
306 305 303 301 300 297 295 292 289 287 285 282 278 273 269 266 263 261 260 259 259 258 258 259 260 261 262 262 262 262 262 262 262 263 263 263 263 263 263 263 263 263 263 263 264 265 265 266 265 265 266 266 267 267 267 267 268 269 270 271 271 272 272 273 274 274 274 274 274 274 275 275 274 274 274 274 275 275 275 276 276 277 277 278 279 279 279
310 309 307 304 302 300 297 293 290 286 283 281 280 278 275 273 270 267 264 261 260 259 258 258 258 258 258 259 258 258 258 258 259 260 261 262 262 262 262 262 263 263 263 263 264 264 264 264 264 264 265 266 266 266 266 267 268 269 270 271 272 272 273 273 274 274 274 274 274 274 274 274 274 274 275 275 276 276 276 276 276 276 276 277 279 281 283
311 309 307 303 300 297 294 290 287 284 281 279 278 277 275 273 272 269 266 263 261 260 259 258 258 257 257 257 257 256 256 255 256 256 257 258 259 259 260 260 260 261 261 261 262 262 262 262 263 263 264 265 266 266 267 268 268 269 270 271 271 272 272 273 273 273 274 274 274 274 274 275 275 276 276 277 277 276 276 276 276 276 278 280 282 284 285
313 311 308 304 301 298 294 290 285 281 278 276 276 275 273 271 270 269 267 265 263 261 260 259 258 257 257 256 256 255 255 255 254 254 254 255 255 256 256 257 257 258 259 259 260 260 261 262 263 263 264 265 265 266 267 267 268 268 269 270 271 271 271 272 273 274 275 276 275 276 276 276 277 277 277 277 277 276 276 277 277 279 281 282 283 284 285
313 310 307 304 301 299 297 293 289 284 279 274 272 271 271 271 269 268 267 265 263 262 261 260 259 258 257 256 255 255 255 254 254 254 254 254 254 254 255 255 256 256 257 258 258 259 260 261 261 262 262 263 264 265 266 267 267 267 267 268 268 268 269 271 273 275 276 276 276 276 277 278 279 279 278 279 278 278 279 279 280 281 283 284 285 287 288
310 307 305 303 302 300 298 295 292 288 283 278 273 270 267 266 265 264 263 263 262 262 261 260 258 257 256 255 255 254 253 253 253 253 253 253 254 254 254 254 255 255 256 256 257 257 258 259 260 261 262 263 264 265 265 265 265 264 263 264 265 265 267 269 272 275 277 276 276 278 280 281 282 282 282 282 282 282 282 282 283 284 285 287 289 291 293
309 308 307 306 304 302 300 296 293 289 285 282 278 273 267 262 260 259 259 260 261 261 261 260 259 258 257 255 255 254 254 253 253 253 252 253 253 253 253 253 253 254 255 255 256 257 258 259 260 261 262 263 264 263 262 262 261 258 255 257 260 263 266 269 272 275 277 277 277 280 281 282 283 283 285 286 287 287 287 287 287 288 290 293 295 298 302
312 311 310 308 306 305 303 298 293 290 288 286 284 280 274 269 265 263 262 261 261 261 262 262 261 260 258 257 255 254 254 253 253 253 253 253 253 252 252 252 252 253 253 254 256 257 258 259 260 261 262 262 259 255 254 255 255 252 250 253 257 261 265 269 273 276 277 277 279 281 282 283 285 286 288 290 291 292 292 293 294 296 299 302 304 307 310
315 313 310 309 310 309 305 297 289 284 285 290 294 294 289 283 277 271 268 265 263 261 261 261 261 261 260 259 258 257 256 255 255 254 254 253 253 252 252 252 252 253 253 254 255 256 258 259 259 260 260 255 247 243 245 248 249 249 252 256 259 262 266 269 272 275 276 278 280 282 284 286 287 289 291 292 292 293 294 295 297 301 305 308 310 312 313
318 313 311 310 309 306 301 295 285 276 274 279 286 290 290 287 282 276 272 268 266 263 261 260 259 260 259 259 259 258 258 257 256 256 255 254 253 252 251 251 251 252 253 254 255 256 256 257 257 256 251 242 233 234 240 245 248 252 257 260 262 265 267 269 271 273 275 277 279 281 283 285 287 288 290 291 293 295 297 298 302 306 309 311 312 314 316
319 316 314 311 304 298 293 287 280 274 272 274 278 283 285 284 282 282 280 276 271 267 263 260 259 258 258 258 258 258 258 258 256 255 255 254 254 253 253 252 252 252 253 254 254 255 255 255 254 249 240 229 223 229 239 244 247 253 258 260 262 265 266 268 269 270 272 275 277 279 282 286 288 291 293 295 297 299 301 303 306 310 312 314 315 317 319
319 319 318 314 304 293 288 285 279 271 267 270 276 281 281 279 281 287 291 289 282 274 268 265 263 261 259 257 256 257 257 258 258 256 255 255 255 254 254 254 254 253 254 255 255 254 254 252 248 241 231 222 220 228 238 242 244 250 255 259 262 266 266 267 268 269 271 274 277 281 286 291 295 298 300 301 302 303 304 306 309 311 313 315 317 318 320
318 317 319 320 315 301 290 286 282 275 269 270 276 280 281 283 287 290 291 291 288 281 275 271 269 267 264 261 257 255 255 257 258 258 257 255 254 254 254 255 255 255 255 255 253 252 250 248 242 234 225 220 221 229 237 240 242 248 255 260 264 267 269 270 271 272 274 277 281 287 294 300 304 306 307 307 307 308 308 308 309 311 313 316 318 319 321
318 316 317 323 324 317 304 293 285 278 272 269 271 274 278 286 293 293 290 286 283 280 278 276 275 273 272 269 265 263 260 258 258 258 257 256 254 254 253 254 254 254 254 252 250 248 246 242 235 228 224 222 224 230 236 239 242 248 255 261 266 270 272 273 276 278 280 284 288 294 300 305 308 309 310 310 310 310 310 310 311 312 314 316 318 319 321
318 316 316 320 326 327 322 309 296 286 278 272 270 271 277 284 290 291 287 281 277 277 279 279 279 279 279 277 273 270 267 262 259 259 258 257 255 253 253 253 253 253 252 250 248 247 245 240 232 226 224 225 227 231 235 238 241 247 256 263 268 271 273 275 279 282 286 289 293 297 301 304 307 309 310 310 310 310 310 311 312 313 314 315 316 317 319
320 317 315 315 320 325 327 321 310 299 289 281 276 274 275 279 284 285 282 279 278 278 278 277 278 281 284 283 279 275 271 267 264 262 261 260 258 255 254 253 253 253 253 251 249 247 244 238 231 227 225 226 229 232 234 237 242 250 259 265 268 269 271 274 278 282 286 289 293 297 300 303 306 308 309 309 309 309 310 311 311 311 311 311 311 313 315
324 319 314 308 308 313 320 321 315 307 299 292 286 280 275 275 277 278 278 280 284 285 282 279 278 282 286 286 285 280 275 271 268 265 262 262 262 260 257 255 254 253 253 253 251 247 242 237 232 229 228 229 231 233 235 238 245 253 261 264 264 265 267 271 275 280 284 289 293 297 300 303 305 306 307 307 308 308 309 309 309 308 308 307 306 307 309
327 323 317 309 302 302 307 310 309 305 300 297 293 287 280 274 272 272 274 282 289 292 290 285 283 286 289 290 288 282 276 272 270 266 261 259 259 261 261 259 257 255 254 253 251 247 243 238 234 231 230 232 234 235 237 241 247 253 257 259 259 260 263 268 272 278 283 289 293 296 299 302 304 305 306 307 308 308 308 308 306 305 304 303 302 301 302
327 325 321 316 310 306 305 306 304 299 294 292 292 289 284 277 272 272 277 284 289 291 291 291 292 294 295 294 291 285 279 275 274 272 267 262 259 259 260 260 258 256 254 252 250 247 243 238 234 232 233 235 237 238 240 243 247 249 250 251 253 255 259 263 268 274 281 286 289 293 297 300 302 304 306 307 309 308 308 306 305 303 302 301 299 297 297
326 324 322 322 321 318 316 314 309 299 289 284 284 285 283 279 276 278 281 284 285 287 290 295 300 302 303 303 302 298 293 288 284 281 277 272 267 262 260 260 259 256 253 251 249 247 244 239 234 233 234 237 238 239 240 242 242 242 242 244 247 251 255 259 264 270 275 280 284 289 293 297 299 302 306 308 310 310 308 306 304 303 303 303 301 298 297
326 322 322 324 325 325 324 322 316 305 291 281 279 280 280 280 282 286 288 287 285 284 286 291 297 305 311 316 317 315 311 307 301 292 285 281 278 271 265 262 261 260 256 251 246 243 243 242 238 235 235 236 237 236 235 235 234 235 237 240 243 247 251 256 261 266 271 276 281 286 290 293 297 302 308 312 313 311 309 307 306 306 307 307 306 305 304
324 323 324 326 328 328 327 325 321 313 298 284 276 273 273 275 281 286 288 284 274 263 263 271 285 299 307 312 315 315 313 311 309 304 296 291 288 283 276 268 262 259 257 254 249 244 242 241 238 235 233 233 231 229 227 227 228 230 233 237 240 244 248 252 257 263 269 276 281 285 288 292 297 306 313 316 316 314 313 311 311 311 311 311 311 310 310
322 323 326 328 330 330 330 328 325 318 306 290 277 269 267 271 277 280 279 272 263 258 260 268 281 292 299 302 305 306 305 304 304 304 303 300 296 294 291 283 273 262 255 253 253 250 247 243 239 234 230 227 224 222 222 223 226 229 232 235 239 243 245 249 253 260 267 273 278 283 287 292 299 307 314 317 317 316 315 315 315 316 316 316 316 315 315
319 320 323 325 327 328 329 329 325 317 306 292 277 266 264 268 272 273 271 268 264 263 264 268 275 282 287 289 291 293 294 294 293 293 295 297 299 299 298 296 288 275 263 255 252 251 250 247 243 238 231 226 223 221 221 223 226 229 232 236 240 243 246 249 253 259 264 268 273 278 284 290 296 303 309 314 316 316 315 315 315 316 317 318 319 320 320
Height
5656 5657 5658 5659 5661 5662 5664 5667 5669 5671 5672 5673 5674 5675 5676 5678 5679 5680 5681 5683 5685 5687 5688 5689 5691 5693 5695 5695 5696 5696 5697 5698 5699 5700 5701 5703 5704 5705 5707 5709 5712 5714 5715 5716 5718 5719 5719 5720 5721 5722 5723 5724 5724 5723 5722 5723 5725 5727 5727 5728 5731 5733 5735 5734 5735 5736 5737 5738 5739 5739 5739 5739 5740 5741 5742 5743 5743 5744 5745 5746 5747 5747 5747 5748 5748 5748 5749
5651 5653 5655 5657 5658 5660 5661 5664 5666 5668 5669 5671 5672 5673 5674 5675 5676 5678 5679 5680 5682 5684 5685 5688 5690 5692 5693 5693 5694 5695 5696 5696 5697 5699 5700 5701 5703 5704 5706 5708 5710 5711 5712 5714 5715 5716 5717 5718 5719 5719 5720 5721 5721 5721 5721 5722 5724 5724 5724 5726 5729 5731 5731 5731 5731 5732 5733 5734 5736 5736 5735 5736 5736 5738 5738 5739 5740 5741 5742 5743 5743 5744 5745 5745 5745 5746 5746
5648 5650 5651 5654 5656 5657 5658 5660 5663 5665 5667 5668 5669 5670 5671 5673 5674 5675 5676 5678 5679 5681 5684 5687 5689 5690 5691 5692 5692 5692 5692 5693 5695 5696 5697 5699 5700 5702 5704 5705 5707 5708 5710 5711 5712 5714 5715 5716 5716 5717 5717 5719 5719 5720 5720 5721 5722 5722 5722 5724 5727 5727 5727 5728 5728 5729 5729 5731 5732 5732 5731 5732 5732 5733 5734 5735 5736 5737 5738 5739 5740 5741 5742 5743 5744 5744 5744
5645 5647 5648 5650 5652 5654 5655 5657 5659 5661 5663 5665 5666 5668 5669 5670 5671 5672 5674 5676 5677 5679 5681 5684 5686 5687 5689 5690 5691 5690 5688 5689 5691 5691 5693 5695 5697 5699 5701 5702 5704 5705 5707 5708 5710 5711 5713 5714 5715 5715 5716 5717 5718 5718 5719 5720 5721 5721 5721 5723 5724 5723 5723 5724 5725 5724 5726 5728 5729 5728 5728 5729 5729 5729 5730 5731 5733 5734 5735 5736 5737 5738 5739 5740 5741 5742 5742
5642 5644 5645 5645 5647 5649 5651 5653 5655 5657 5660 5662 5663 5665 5667 5668 5669 5671 5672 5674 5675 5677 5678 5680 5682 5684 5686 5688 5689 5688 5686 5686 5687 5687 5688 5691 5693 5695 5698 5699 5701 5702 5704 5705 5707 5708 5710 5711 5712 5713 5714 5715 5716 5717 5717 5719 5719 5720 5720 5721 5720 5720 5720 5721 5721 5721 5722 5724 5725 5725 5725 5726 5726 5726 5726 5728 5730 5731 5732 5733 5734 5735 5736 5737 5738 5739 5740
5639 5641 5642 5642 5643 5644 5646 5650 5653 5654 5657 5658 5660 5662 5664 5666 5667 5669 5670 5671 5672 5674 5675 5677 5679 5681 5682 5684 5685 5685 5684 5684 5684 5684 5685 5688 5690 5692 5695 5697 5698 5700 5701 5703 5704 5705 5706 5708 5709 5710 5711 5712 5713 5713 5714 5715 5716 5716 5717 5717 5716 5717 5718 5718 5718 5718 5719 5721 5721 5721 5722 5723 5724 5723 5723 5724 5726 5728 5729 5730 5731 5732 5733 5734 5735 5735 5736
5637 5638 5638 5639 5640 5641 5643 5646 5649 5651 5653 5655 5656 5658 5660 5662 5664 5666 5668 5669 5670 5672 5673 5675 5676 5677 5679 5680 5681 5682 5682 5682 5681 5682 5683 5685 5687 5689 5692 5694 5695 5697 5699 5700 5701 5702 5703 5705 5706 5707 5708 5709 5709 5710 5710 5711 5711 5712 5713 5714 5714 5715 5716 5717 5717 5717 5717 5718 5719 5719 5719 5720 5721 5721 5721 5721 5722 5723 5725 5726 5727 5728 5729 5730 5731 5732 5732
5636 5636 5636 5637 5638 5639 5640 5642 5645 5647 5650 5652 5653 5654 5657 5659 5660 5662 5664 5666 5668 5670 5671 5672 5674 5675 5676 5677 5677 5679 5679 5678 5678 5680 5681 5683 5685 5687 5689 5690 5692 5694 5695 5697 5698 5699 5700 5702 5703 5704 5705 5705 5706 5707 5707 5707 5708 5709 5710 5711 5712 5713 5714 5715 5715 5715 5716 5717 5718 5717 5717 5718 5719 5719 5719 5719 5719 5720 5720 5721 5723 5725 5726 5726 5727 5728 5728
5634 5635 5635 5635 5636 5637 5638 5639 5641 5643 5645 5648 5649 5650 5652 5655 5657 5659 5660 5662 5664 5666 5668 5669 5671 5672 5673 5673 5673 5674 5674 5673 5674 5676 5678 5680 5682 5684 5685 5687 5689 5690 5692 5693 5695 5696 5697 5698 5699 5699 5700 5701 5702 5703 5704 5705 5705 5706 5707 5708 5709 5710 5711 5712 5713 5713 5714 5715 5716 5715 5715 5716 5716 5716 5716 5716 5716 5717 5717 5718 5719 5721 5722 5722 5722 5723 5723
5632 5634 5634 5634 5634 5635 5636 5637 5639 5641 5642 5644 5646 5647 5649 5651 5653 5655 5657 5660 5662 5663 5665 5667 5668 5669 5669 5669 5669 5669 5668 5668 5670 5672 5674 5676 5678 5680 5681 5683 5685 5687 5688 5690 5691 5693 5694 5695 5695 5695 5695 5696 5697 5698 5699 5701 5703 5703 5704 5705 5706 5707 5708 5708 5709 5710 5711 5712 5712 5712 5713 5713 5713 5713 5714 5714 5714 5714 5714 5715 5715 5716 5718 5718 5718 5719 5719
5630 5632 5632 5633 5633 5634 5635 5636 5637 5639 5641 5643 5644 5645 5647 5648 5650 5651 5654 5656 5658 5661 5662 5663 5663 5663 5664 5663 5663 5663 5664 5665 5667 5669 5671 5673 5674 5676 5678 5679 5681 5683 5684 5686 5687 5688 5689 5691 5692 5693 5693 5693 5694 5694 5695 5697 5698 5699 5700 5701 5702 5703 5703 5704 5705 5706 5708 5708 5709 5709 5709 5709 5710 5709 5709 5709 5710 5710 5710 5711 5711 5712 5713 5713 5714 5714 5714
5628 5629 5630 5631 5632 5633 5634 5635 5636 5637 5639 5640 5642 5643 5644 5646 5648 5649 5650 5652 5655 5657 5659 5658 5657 5657 5658 5658 5659 5660 5661 5663 5664 5665 5667 5669 5671 5672 5674 5675 5677 5679 5680 5681 5682 5683 5685 5687 5689 5690 5690 5690 5691 5691 5692 5693 5694 5695 5696 5697 5698 5698 5699 5700 5701 5702 5703 5704 5705 5705 5705 5706 5707 5707 5705 5705 5705 5705 5705 5706 5707 5707 5707 5708 5708 5708 5708
5626 5627 5628 5628 5629 5631 5632 5633 5634 5636 5637 5639 5640 5641 5642 5644 5645 5646 5647 5649 5651 5653 5653 5653 5652 5652 5652 5654 5656 5657 5659 5660 5660 5662 5663 5665 5667 5668 5669 5671 5672 5673 5675 5676 5677 5679 5680 5682 5684 5685 5686 5686 5686 5687 5688 5689 5690 5691 5692 5692 5693 5694 5695 5695 5696 5698 5699 5699 5699 5700 5700 5701 5702 5703 5702 5701 5701 5701 5701 5701 5701 5702 5702 5702 5702 5702 5702
5624 5625 5625 5626 5627 5628 5629 5630 5632 5634 5635 5636 5638 5639 5640 5642 5642 5643 5644 5646 5647 5649 5649 5649 5648 5647 5648 5650 5652 5653 5655 5656 5657 5658 5659 5660 5662 5664 5665 5666 5667 5668 5670 5671 5672 5674 5675 5676 5677 5678 5679 5680 5681 5682 5683 5683 5684 5685 5686 5687 5688 5689 5690 5690 5691 5692 5693 5693 5693 5694 5695 5695 5695 5696 5697 5697 5696 5696 5696 5695 5695 5695 5695 5695 5695 5695 5694
5622 5622 5623 5623 5625 5626 5627 5628 5629 5631 5632 5634 5635 5637 5638 5639 5640 5640 5641 5642 5643 5645 5645 5645 5645 5645 5645 5646 5647 5648 5650 5651 5652 5654 5655 5656 5658 5659 5660 5662 5663 5664 5665 5666 5667 5669 5670 5670 5671 5672 5673 5674 5675 5676 5677 5677 5678 5679 5680 5681 5682 5683 5684 5684 5685 5686 5687 5687 5687 5687 5688 5688 5689 5689 5690 5690 5690 5690 5690 5689 5689 5688 5688 5688 5688 5688 5687
5619 5620 5620 5621 5623 5624 5624 5625 5626 5628 5629 5631 5633 5634 5635 5637 5637 5638 5639 5640 5640 5641 5642 5642 5643 5643 5643 5644 5644 5645 5646 5647 5648 5650 5651 5652 5653 5655 5656 5657 5658 5660 5661 5662 5663 5663 5664 5665 5666 5667 5667 5668 5669 5670 5671 5671 5672 5673 5674 5675 5675 5676 5677 5678 5679 5679 5680 5680 5681 5681 5681 5681 5681 5682 5682 5682 5682 5682 5682 5682 5682 5682 5682 5682 5681 5681 5681
5617 5617 5618 5619 5620 5621 5622 5623 5624 5625 5626 5628 5630 5631 5632 5634 5635 5635 5636 5636 5637 5638 5640 5640 5640 5640 5640 5641 5642 5642 5643 5644 5645 5646 5647 5648 5649 5650 5651 5652 5653 5654 5656 5656 5657 5658 5659 5660 5660 5661 5662 5663 5663 5664 5665 5666 5667 5667 5668 5669 5669 5670 5670 5671 5671 5672 5672 5673 5673 5673 5673 5674 5674 5674 5674 5674 5674 5674 5675 5675 5675 5675 5675 5675 5674 5674 5674
5614 5615 5615 5617 5618 5619 5620 5621 5621 5622 5623 5625 5626 5627 5628 5630 5631 5631 5632 5632 5633 5634 5636 5636 5636 5636 5636 5637 5638 5639 5640 5641 5642 5642 5643 5644 5645 5646 5647 5647 5648 5650 5651 5651 5652 5653 5653 5654 5655 5655 5656 5656 5657 5658 5659 5660 5661 5662 5662 5663 5663 5664 5664 5664 5664 5665 5665 5665 5665 5666 5666 5666 5666 5666 5667 5667 5667 5666 5666 5666 5666 5666 5666 5666 5666 5666 5666
5612 5612 5613 5614 5615 5616 5617 5618 5619 5620 5620 5621 5622 5623 5624 5625 5626 5627 5627 5628 5629 5629 5630 5631 5631 5631 5632 5633 5634 5635 5636 5637 5637 5638 5639 5640 5641 5642 5642 5643 5644 5645 5646 5646 5647 5648 5648 5649 5650 5650 5651 5651 5651 5652 5653 5654 5655 5655 5656 5656 5657 5657 5657 5657 5658 5658 5658 5658 5659 5659 5659 5659 5659 5659 5659 5659 5659 5659 5658 5658 5658 5658 5658 5658 5658 5658 5658
5610 5610 5611 5612 5613 5613 5614 5615 5616 5616 5617 5618 5619 5619 5620 5621 5622 5622 5623 5623 5623 5624 5625 5626 5626 5626 5627 5629 5630 5631 5631 5632 5632 5633 5634 5634 5636 5636 5637 5637 5638 5640 5640 5641 5642 5642 5643 5644 5645 5645 5646 5646 5646 5647 5647 5648 5649 5649 5649 5650 5650 5650 5650 5650 5651 5651 5651 5652 5652 5652 5652 5652 5651 5651 5651 5651 5651 5651 5651 5651 5651 5650 5650 5650 5649 5649 5649
5607 5608 5609 5609 5610 5610 5611 5612 5612 5613 5613 5614 5615 5615 5616 5616 5617 5617 5618 5618 5618 5619 5620 5621 5621 5622 5623 5624 5625 5625 5626 5626 5627 5627 5628 5628 5630 5631 5631 5632 5633 5634 5635 5636 5636 5637 5638 5639 5640 5640 5640 5640 5640 5641 5641 5642 5643 5643 5643 5643 5643 5643 5643 5643 5643 5644 5644 5644 5644 5644 5644 5643 5643 5642 5642 5642 5642 5642 5642 5642 5642 5641 5641 5640 5639 5639 5639
5606 5606 5606 5607 5607 5607 5607 5608 5609 5610 5610 5611 5611 5611 5612 5612 5612 5612 5613 5613 5613 5614 5614 5615 5616 5617 5617 5618 5619 5620 5621 5621 5622 5622 5622 5623 5624 5625 5626 5627 5628 5629 5630 5630 5631 5631 5632 5633 5634 5634 5635 5634 5634 5634 5635 5636 5636 5636 5636 5636 5636 5636 5636 5636 5636 5636 5636 5636 5636 5636 5635 5635 5634 5633 5633 5633 5633 5633 5632 5632 5631 5631 5630 5630 5629 5629 5628
5604 5604 5604 5604 5604 5604 5604 5605 5606 5606 5607 5607 5608 5608 5608 5608 5607 5607 5607 5608 5608 5609 5609 5610 5611 5611 5612 5612 5613 5614 5615 5616 5616 5617 5617 5618 5619 5620 5621 5622 5623 5624 5624 5624 5625 5625 5626 5626 5627 5628 5628 5627 5627 5628 5629 5629 5629 5629 5629 5629 5628 5628 5628 5628 5628 5628 5628 5627 5627 5627 5626 5626 5625 5625 5624 5623 5623 5623 5623 5622 5621 5620 5620 5619 5619 5618 5618
5602 5602 5602 5602 5602 5601 5601 5602 5602 5602 5603 5603 5603 5604 5604 5604 5603 5603 5603 5603 5604 5604 5604 5605 5606 5606 5606 5606 5607 5607 5608 5609 5610 5610 5611 5611 5612 5614 5615 5616 5617 5617 5618 5618 5619 5619 5619 5620 5621 5621 5621 5619 5620 5621 5622 5621 5621 5621 5621 5621 5620 5620 5620 5620 5620 5619 5619 5619 5618 5618 5617 5617 5616 5616 5616 5615 5613 5612 5613 5613 5612 5610 5610 5610 5609 5608 5608
5601 5601 5600 5600 5600 5599 5599 5599 5599 5599 5599 5599 5599 5599 5599 5599 5599 5599 5598 5598 5599 5599 5600 5600 5601 5601 5600 5600 5601 5601 5602 5603 5604 5604 5604 5605 5606 5607 5608 5609 5610 5610 5611 5611 5612 5612 5612 5613 5614 5614 5613 5612 5613 5614 5614 5614 5614 5614 5613 5613 5613 5613 5613 5613 5612 5612 5611 5611 5610 5610 5609 5609 5608 5608 5608 5607 5605 5603 5602 5603 5603 5602 5601 5600 5599 5599 5598
5598 5598 5598 5598 5598 5598 5598 5597 5597 5596 5596 5595 5595 5595 5594 5594 5594 5594 5594 5594 5594 5594 5595 5595 5595 5595 5594 5594 5595 5596 5596 5597 5598 5598 5599 5599 5600 5600 5601 5602 5603 5603 5604 5604 5605 5605 5605 5606 5606 5606 5606 5605 5606 5607 5607 5607 5607 5607 5606 5606 5606 5606 5606 5606 5605 5604 5604 5603 5603 5602 5601 5601 5601 5600 5599 5599 5597 5595 5593 5593 5593 5593 5593 5592 5591 5590 5590
5596 5596 5596 5595 5595 5595 5595 5595 5594 5594 5594 5593 5592 5591 5591 5590 5589 5589 5589 5589 5590 5590 5590 5590 5589 5589 5589 5589 5590 5591 5591 5592 5593 5593 5593 5594 5594 5595 5595 5596 5596 5597 5598 5598 5598 5598 5599 5599 5600 5600 5599 5599 5600 5600 5601 5600 5600 5600 5600 5599 5599 5599 5599 5598 5598 5597 5596 5596 5595 5594 5594 5593 5593 5592 5591 5590 5590 5589 5588 5586 5584 5583 5583 5584 5584 5584 5583
5595 5594 5594 5593 5593 5592 5592 5591 5591 5590 5590 5589 5589 5588 5587 5587 5586 5586 5585 5585 5585 5585 5584 5584 5584 5584 5584 5584 5585 5586 5586 5587 5587 5587 5587 5588 5589 5589 5590 5590 5591 5591 5592 5592 5592 5592 5593 5594 5594 5594 5593 5593 5594 5594 5594 5594 5594 5594 5594 5593 5593 5593 5593 5592 5591 5590 5590 5589 5588 5588 5587 5587 5586 5585 5584 5583 5583 5583 5582 5581 5579 5577 5576 5576 5576 5576 5576
5593 5592 5591 5590 5590 5589 5588 5588 5587 5586 5585 5584 5583 5582 5582 5582 5582 5582 5581 5581 5580 5580 5580 5579 5579 5579 5580 5580 5580 5581 5581 5582 5582 5581 5581 5582 5583 5584 5584 5585 5586 5586 5586 5587 5587 5588 5588 5588 5588 5588 5588 5588 5589 5589 5589 5589 5589 5589 5588 5588 5588 5588 5587 5586 5585 5585 5584 5583 5583 5582 5582 5581 5580 5579 5579 5578 5578 5577 5576 5575 5574 5573 5572 5571 5570 5570 5570
5590 5589 5588 5587 5586 5585 5584 5583 5582 5581 5580 5579 5577 5577 5577 5577 5577 5576 5576 5576 5575 5575 5575 5575 5575 5575 5575 5576 5576 5576 5577 5577 5577 5577 5577 5577 5578 5579 5579 5580 5581 5581 5582 5582 5583 5583 5583 5583 5583 5583 5583 5583 5584 5584 5584 5584 5584 5584 5583 5583 5583 5583 5582 5581 5581 5580 5579 5578 5578 5577 5576 5575 5575 5574 5574 5573 5573 5572 5571 5571 5570 5569 5568 5567 5566 5565 5565
5587 5586 5584 5583 5582 5580 5579 5577 5576 5575 5574 5573 5571 5571 5571 5571 5571 5571 5571 5570 5570 5569 5569 5570 5570 5570 5570 5571 5571 5571 5572 5572 5572 5573 5573 5573 5574 5574 5575 5576 5576 5576 5577 5578 5578 5578 5578 5578 5578 5579 5579 5579 5579 5579 5579 5579 5580 5579 5579 5578 5578 5578 5577 5577 5576 5575 5574 5574 5573 5572 5572 5571 5570 5570 5569 5569 5568 5568 5567 5567 5566 5565 5564 5563 5562 5561 5560
5582 5580 5579 5577 5575 5574 5573 5571 5569 5568 5568 5566 5565 5564 5564 5565 5565 5565 5565 5564 5564 5564 5564 5564 5565 5565 5565 5566 5566 5566 5567 5567 5568 5568 5568 5569 5569 5570 5571 5571 5572 5572 5573 5573 5573 5573 5573 5574 5574 5574 5574 5574 5574 5574 5574 5575 5575 5575 5574 5574 5574 5573 5573 5572 5572 5571 5570 5570 5569 5568 5568 5567 5567 5566 5566 5565 5565 5564 5564 5563 5562 5561 5560 5559 5558 5556 5555
5577 5575 5573 5570 5568 5567 5565 5563 5561 5561 5560 5560 5559 5558 5558 5558 5559 5559 5558 5558 5559 5559 5559 5560 5560 5560 5560 5561 5561 5561 5562 5562 5563 5563 5564 5564 5565 5565 5566 5566 5567 5568 5568 5568 5569 5569 5569 5569 5570 5569 5569 5569 5570 5570 5570 5570 5571 5570 5570 5570 5570 5569 5569 5568 5568 5567 5567 5566 5565 5565 5565 5564 5563 5563 5562 5562 5561 5561 5560 5559 5558 5556 5555 5554 5553 5552 5551
5573 5570 5567 5565 5562 5560 5558 5556 5555 5554 5553 5553 5553 5553 5553 5553 5553 5553 5553 5553 5553 5554 5554 5555 5555 5555 5555 5556 5556 5556 5557 5558 5558 5558 5559 5559 5560 5560 5561 5562 5562 5563 5563 5564 5564 5564 5565 5565 5565 5565 5565 5565 5565 5565 5565 5566 5566 5566 5566 5566 5566 5566 5566 5565 5565 5565 5564 5563 5562 5562 5562 5561 5560 5560 5559 5559 5558 5557 5556 5555 5554 5553 5552 5551 5549 5548 5547
5567 5564 5561 5559 5557 5555 5553 5552 5551 5550 5549 5549 5549 5549 5549 5549 5549 5548 5548 5548 5548 5549 5549 5550 5550 5551 5551 5551 5552 5552 5552 5553 5554 5554 5554 5555 5555 5556 5557 5557 5558 5558 5559 5559 5560 5560 5561 5561 5561 5560 5561 5561 5561 5561 5561 5562 5562 5563 5563 5563 5563 5563 5563 5562 5562 5562 5561 5560 5560 5559 5559 5558 5558 5557 5557 5556 5555 5554 5553 5552 5551 5549 5548 5547 5546 5544 5543
5561 5558 5555 5554 5552 5551 5550 5549 5548 5547 5547 5546 5546 5546 5545 5545 5545 5544 5544 5544 5544 5544 5545 5545 5546 5546 5546 5547 5547 5548 5548 5549 5549 5550 5550 5551 5551 5552 5552 5553 5553 5554 5554 5555 5555 5556 5556 5556 5556 5556 5557 5557 5557 5557 5557 5558 5559 5560 5560 5560 5560 5560 5560 5560 5560 5559 5559 5558 5557 5557 5556 5556 5555 5555 5554 5553 5552 5551 5550 5549 5548 5547 5545 5544 5543 5541 5539
5556 5554 5552 5550 5549 5548 5547 5546 5545 5545 5545 5544 5544 5543 5543 5542 5542 5541 5541 5540 5541 5541 5541 5542 5542 5542 5542 5543 5543 5544 5544 5545 5545 5546 5546 5547 5547 5547 5548 5548 5549 5549 5550 5550 5551 5552 5552 5552 5552 5552 5553 5553 5554 5554 5554 5555 5556 5557 5557 5557 5557 5557 5557 5557 5557 5557 5556 5556 5555 5554 5554 5553 5553 5552 5552 5551 5550 5549 5548 5546 5545 5544 5542 5541 5539 5538 5536
5553 5551 5549 5548 5546 5545 5545 5544 5543 5543 5543 5542 5542 5541 5541 5540 5539 5539 5538 5538 5538 5538 5538 5538 5539 5539 5539 5539 5540 5540 5541 5541 5542 5542 5542 5543 5543 5543 5544 5544 5545 5545 5546 5546 5547 5547 5548 5548 5548 5549 5549 5550 5551 5551 5552 5553 5553 5554 5554 5554 5554 5554 5554 5554 5554 5554 5554 5553 5552 5552 5551 5551 5550 5550 5549 5548 5547 5546 5545 5544 5542 5541 5539 5538 5536 5534 5532
5549 5548 5547 5545 5544 5543 5543 5542 5542 5541 5541 5541 5540 5539 5539 5538 5537 5537 5536 5536 5535 5535 5535 5535 5535 5536 5536 5536 5537 5537 5537 5538 5538 5538 5539 5539 5539 5540 5540 5540 5541 5541 5542 5543 5543 5543 5544 5544 5545 5545 5546 5547 5548 5549 5549 5550 5551 5551 5552 5552 5551 5551 5551 5551 5551 5551 5551 5550 5550 5549 5549 5548 5548 5547 5546 5545 5544 5543 5542 5541 5540 5538 5536 5535 5533 5532 5530
5547 5546 5544 5543 5542 5541 5540 5540 5540 5539 5539 5538 5538 5537 5537 5536 5536 5535 5535 5534 5534 5533 5533 5533 5533 5533 5533 5533 5534 5534 5534 5534 5535 5535 5535 5535 5536 5536 5536 5537 5537 5538 5538 5539 5539 5540 5540 5540 5541 5542 5543 5544 5546 5546 5546 5547 5548 5549 5549 5549 5549 5549 5549 5549 5549 5548 5548 5548 5547 5547 5546 5546 5545 5544 5543 5543 5542 5541 5540 5538 5537 5536 5534 5532 5530 5529 5527
5545 5543 5542 5541 5540 5539 5538 5537 5537 5537 5537 5536 5536 5535 5535 5535 5534 5534 5534 5533 5533 5532 5531 5531 5531 5530 5530 5530 5531 5531 5531 5531 5532 5532 5532 5532 5532 5533 5533 5533 5534 5535 5535 5536 5536 5536 5537 5537 5538 5539 5541 5542 5543 5543 5543 5544 5545 5546 5546 5546 5546 5546 5546 5546 5546 5546 5546 5545 5545 5545 5544 5543 5543 5542 5541 5540 5539 5538 5537 5536 5535 5533 5532 5530 5528 5526 5524
5543 5542 5540 5539 5538 5537 5536 5535 5534 5534 5534 5534 5534 5533 5533 5533 5532 5532 5532 5532 5531 5530 5530 5529 5529 5528 5528 5528 5528 5528 5528 5529 5529 5529 5529 5529 5529 5530 5530 5530 5531 5531 5532 5532 5532 5533 5533 5534 5535 5537 5538 5539 5540 5540 5541 5541 5542 5543 5543 5544 5544 5544 5544 5544 5544 5544 5543 5543 5543 5542 5542 5541 5540 5539 5538 5537 5536 5535 5534 5533 5532 5531 5529 5528 5526 5524 5522
5540 5539 5538 5537 5536 5535 5534 5533 5532 5531 5531 5531 5531 5531 5531 5530 5530 5530 5529 5529 5529 5529 5528 5527 5527 5526 5526 5526 5525 5525 5525 5525 5526 5526 5526 5526 5527 5527 5527 5527 5528 5528 5528 5529 5529 5529 5530 5531 5533 5534 5535 5536 5537 5537 5538 5539 5540 5541 5541 5541 5541 5542 5542 5541 5541 5541 5541 5541 5540 5540 5539 5539 5538 5537 5536 5535 5534 5533 5532 5531 5530 5528 5527 5526 5524 5522 5520
5539 5537 5536 5535 5534 5533 5532 5531 5530 5529 5529 5528 5528 5528 5528 5528 5528 5527 5527 5527 5527 5526 5526 5525 5525 5524 5524 5524 5523 5523 5522 5522 5523 5523 5523 5523 5524 5524 5524 5524 5525 5525 5525 5525 5526 5526 5527 5528 5530 5531 5532 5533 5534 5534 5535 5536 5537 5538 5538 5538 5539 5539 5539 5539 5539 5539 5538 5538 5538 5537 5537 5536 5535 5534 5533 5532 5531 5530 5529 5528 5527 5526 5525 5523 5522 5521 5519
5537 5535 5534 5533 5533 5532 5531 5529 5528 5527 5526 5526 5525 5525 5526 5526 5525 5525 5525 5525 5525 5524 5524 5523 5523 5522 5522 5521 5521 5521 5520 5520 5520 5520 5521 5521 5521 5521 5521 5521 5522 5522 5522 5523 5523 5524 5524 5525 5526 5528 5529 5530 5530 5531 5532 5533 5534 5535 5535 5535 5536 5536 5536 5536 5536 5536 5536 5536 5535 5535 5534 5534 5533 5532 5531 5530 5529 5528 5527 5526 5524 5523 5522 5521 5520 5519 5517
5535 5534 5533 5532 5531 5530 5529 5528 5526 5525 5524 5524 5523 5523 5523 5523 5523 5523 5523 5523 5522 5522 5521 5521 5521 5520 5520 5519 5519 5518 5518 5518 5518 5518 5518 5518 5518 5518 5518 5518 5519 5519 5520 5520 5521 5521 5522 5523 5524 5525 5526 5526 5527 5528 5529 5531 5531 5532 5532 5532 5533 5533 5533 5534 5534 5533 5533 5533 5533 5532 5532 5531 5530 5529 5528 5528 5526 5525 5524 5523 5522 5521 5520 5519 5518 5517 5515
5533 5532 5531 5530 5529 5528 5527 5526 5524 5523 5522 5522 5521 5521 5521 5521 5521 5521 5521 5521 5520 5520 5519 5519 5518 5518 5518 5517 5517 5516 5516 5516 5515 5515 5515 5515 5516 5516 5516 5516 5516 5516 5517 5517 5518 5518 5519 5520 5521 5522 5523 5523 5524 5525 5526 5527 5528 5528 5529 5529 5530 5530 5531 5531 5531 5531 5531 5531 5530 5530 5529 5528 5528 5527 5526 5525 5524 5523 5522 5521 5520 5519 5518 5517 5516 5515 5513
5532 5530 5529 5528 5527 5526 5524 5523 5522 5521 5520 5520 5519 5519 5519 5519 5519 5519 5519 5519 5518 5518 5517 5517 5516 5516 5516 5516 5515 5514 5514 5514 5514 5513 5513 5513 5513 5513 5513 5513 5514 5514 5514 5515 5515 5516 5516 5517 5518 5519 5520 5520 5521 5522 5523 5524 5524 5525 5526 5526 5527 5527 5528 5528 5528 5528 5528 5528 5528 5528 5527 5526 5526 5525 5524 5523 5522 5521 5520 5519 5518 5516 5515 5514 5514 5513 5512
5530 5528 5527 5526 5525 5524 5522 5521 5519 5518 5518 5518 5517 5517 5517 5517 5517 5517 5517 5517 5516 5516 5515 5515 5515 5515 5515 5514 5514 5513 5512 5512 5512 5512 5512 5511 5511 5511 5511 5511 5511 5512 5512 5512 5513 5513 5514 5515 5516 5516 5517 5517 5518 5519 5520 5521 5521 5522 5523 5524 5524 5525 5525 5525 5525 5526 5526 5526 5526 5525 5525 5524 5524 5523 5522 5521 5520 5519 5518 5517 5516 5515 5514 5513 5512 5511 5510
5528 5526 5525 5524 5523 5521 5520 5519 5518 5516 5516 5515 5515 5515 5515 5515 5515 5515 5515 5515 5514 5514 5514 5514 5514 5514 5513 5513 5512 5512 5511 5511 5511 5510 5510 5510 5510 5510 5510 5510 5510 5510 5510 5511 5511 5511 5512 5513 5513 5514 5514 5515 5515 5516 5517 5518 5519 5519 5520 5521 5521 5522 5522 5523 5523 5523 5523 5523 5523 5523 5523 5522 5522 5521 5520 5519 5518 5517 5516 5515 5514 5513 5512 5512 5511 5510 5509
5526 5524 5523 5522 5520 5519 5518 5517 5516 5515 5514 5513 5513 5514 5514 5514 5514 5514 5513 5513 5513 5512 5512 5513 5513 5513 5512 5511 5511 5510 5510 5510 5509 5509 5509 5509 5508 5508 5508 5508 5508 5508 5508 5509 5509 5510 5510 5511 5511 5512 5512 5513 5513 5514 5514 5515 5516 5517 5518 5518 5519 5519 5520 5520 5520 5521 5521 5521 5521 5521 5520 5520 5519 5519 5518 5517 5516 5515 5514 5514 5513 5512 5511 5510 5510 5509 5508
5523 5522 5521 5519 5518 5517 5516 5515 5514 5513 5512 5512 5512 5512 5512 5512 5512 5511 5511 5511 5511 5510 5511 5511 5511 5511 5510 5510 5509 5509 5508 5508 5508 5507 5507 5507 5507 5506 5506 5506 5506 5506 5506 5507 5507 5507 5508 5508 5509 5510 5510 5511 5511 5512 5513 5513 5514 5515 5515 5516 5516 5517 5517 5517 5518 5518 5518 5518 5518 5518 5518 5518 5517 5517 5516 5515 5514 5514 5513 5512 5511 5511 5510 5509 5509 5508 5507